This is the latest recevied weather packets stored in our database for station/object KD8OUK. If no packets are shown the sender has not sent any weather packets the latest 10 day(s).
| Time | Temp. | Humidity | Pressure | Rain* | Wind** | Luminosity | Snow |
|---|---|---|---|---|---|---|---|
| 1777970722 | 14.44° C | 88% | 1007.6 hPa | 0 mm | - | - | - |
| 1777970432 | 14.44° C | 88% | 1007.5 hPa | 0 mm | - | - | - |
| 1777970119 | 14.44° C | 88% | 1007.3 hPa | 0 mm | - | - | - |
| 1777969829 | 14.44° C | 88% | 1007.3 hPa | 0 mm | - | - | - |
| 1777969521 | 14.44° C | 88% | 1007.3 hPa | 0 mm | - | - | - |
| 1777969231 | 14.44° C | 88% | 1007.3 hPa | 0 mm | - | - | - |
| 1777968923 | 15° C | 87% | 1007.2 hPa | 0 mm | - | - | - |
| 1777968615 | 15° C | 87% | 1007.2 hPa | 0 mm | - | - | - |
| 1777968325 | 15° C | 87% | 1007.2 hPa | 0 mm | - | - | - |
| 1777968018 | 15° C | 86% | 1007.1 hPa | 0 mm | - | - | - |
| 1777967728 | 15.56° C | 85% | 1007.1 hPa | 0 mm | - | - | - |
| 1777967420 | 15.56° C | 84% | 1006.9 hPa | 0 mm | - | - | - |
| 1777967130 | 15.56° C | 83% | 1006.7 hPa | 0 mm | - | - | - |
| 1777966822 | 15.56° C | 82% | 1006.7 hPa | 0 mm | - | - | - |
| 1777966532 | 16.11° C | 82% | 1006.5 hPa | 0 mm | - | - | - |
| 1777966224 | 16.11° C | 80% | 1006.5 hPa | 0 mm | - | - | - |
| 1777965916 | 16.11° C | 79% | 1006.5 hPa | 0 mm | - | - | - |
| 1777965626 | 16.11° C | 79% | 1006.5 hPa | 0 mm | - | - | - |
| 1777965319 | 16.67° C | 79% | 1006.5 hPa | 0 mm | - | - | - |
| 1777965029 | 16.11° C | 80% | 1006.4 hPa | 0 mm | - | - | - |
| 1777964721 | 16.11° C | 80% | 1006.4 hPa | 0 mm | - | - | - |
| 1777964431 | 16.67° C | 77% | 1006.1 hPa | 0 mm | - | - | - |
| 1777964124 | 17.22° C | 76% | 1006 hPa | 0 mm | - | - | - |
| 1777963815 | 16.67° C | 77% | 1005.9 hPa | 0 mm | - | - | - |
| 1777963526 | 17.22° C | 75% | 1005.7 hPa | 0 mm | - | - | - |
* Rain latest hour (hover to see other rain measurements)
** Current wind speed in m/s (hover to see current wind gust speed)